Overview Statistics Trail Chart Weather Telemetry Raw packets
 

This is the latest recevied weather packets stored in our database for station/object IW5CTE-13. If no packets are shown the sender has not sent any weather packets the latest 10 day(s).

<< 1 2 3 4 5 6 >>
Time Temp. Humidity Pressure Rain* Wind** Luminosity Snow
1788541345 30.56° C 63% 1018.4 hPa - - - -
1788540744 30° C 64% 1018.4 hPa - - - -
1788540144 30.56° C 66% 1018.4 hPa - - - -
1788539544 30.56° C 66% 1018.5 hPa - - - -
1788538944 31.11° C 66% 1018.4 hPa - - - -
1788538343 31.11° C 65% 1018.6 hPa - - - -
1788537744 31.67° C 59% 1018.5 hPa - - - -
1788537145 31.67° C 51% 1018.5 hPa - - - -
1788536544 31.67° C 47% 1018.5 hPa - - - -
1788535944 31.67° C 46% 1018.5 hPa - - - -
1788535344 31.67° C 48% 1018.6 hPa - - - -
1788534743 31.67° C 52% 1018.5 hPa - - - -
1788534144 32.22° C 51% 1018.6 hPa - - - -
1788533543 32.22° C 52% 1018.6 hPa - - - -
1788532944 32.22° C 49% 1018.5 hPa - - - -
1788532344 32.22° C 51% 1018.6 hPa - - - -
1788531744 32.22° C 51% 1018.6 hPa - - - -
1788531144 32.78° C 52% 1018.6 hPa - - - -
1788530544 32.78° C 53% 1018.6 hPa - - - -
1788529943 32.78° C 51% 1018.5 hPa - - - -
1788529344 32.78° C 51% 1018.6 hPa - - - -
1788528744 32.78° C 50% 1018.6 hPa - - - -
1788528144 32.78° C 52% 1018.7 hPa - - - -
1788527543 32.78° C 54% 1018.8 hPa - - - -
1788526944 32.78° C 53% 1018.9 hPa - - - -

* Rain since midnight (hover to see other rain measurements)
** Current wind speed in m/s (hover to see current wind gust speed)